sat.trackr.live / text

‹ back to catalog

STARLINK-38020

NORAD 69713 · 2026-147K

PAYLOAD ACTIVE UNKNOWN

§ Identity

Operator
Country
US
Launch date
2026-06-28
Launch site
AFWTR
Launch vehicle
Mass (kg)
RCS (m²)

Purposes: comms

External: N2YO · Heavens-Above · Gunter

§ Orbital elements

Epoch: 2026-09-20T01:11:36.717792Z

Period
93.91 min
Inclination
97.2841°
Eccentricity
0.0001383
Mean motion
15.33459449 rev/d
Perigee alt
464.6 km
Apogee alt
466.4 km
Semi-major
6,843.6 km
B*
3.7035e-4
RAAN
299.3958°
Arg perigee
103.9550°
Mean anomaly
256.1846°
Rev number
1,416

§ Raw data

STARLINK-380201 69713U 26147K   26263.04973053  .00011906  00000+0  37035-3 0  99932 69713  97.2841 299.3958 0001383 103.9550 256.1846 15.33459449 14163

JSON: /api/v1/satellites/69713 · /tle

For live sub-satellite position, see the globe view (requires WebGL).

§ Visibility from observer

Set your observer location to see the next 7 days of passes ≥ 10°. The values pass through the URL so the page stays shareable.

No JS? Fill the form by hand. The geolocation button needs JavaScript.